This is the latest recevied weather packets stored in our database for station/object KY4OP-13. If no packets are shown the sender has not sent any weather packets the latest 10 day(s).
| Time | Temp. | Humidity | Pressure | Rain* | Wind** | Luminosity | Snow |
|---|---|---|---|---|---|---|---|
| 1778027722 | 22.78° C | 40% | 1012.6 hPa | 0 mm | - | - | - |
| 1778027418 | 22.78° C | 41% | 1012.5 hPa | 0 mm | - | - | - |
| 1778027114 | 23.33° C | 40% | 1012.5 hPa | 0 mm | - | - | - |
| 1778026809 | 23.33° C | 38% | 1012.4 hPa | 0 mm | - | - | - |
| 1778026506 | 23.33° C | 38% | 1012.5 hPa | 0 mm | - | - | - |
| 1778026204 | 23.89° C | 39% | 1012.2 hPa | 0 mm | - | - | - |
| 1778025901 | 23.89° C | 38% | 1012.4 hPa | 0 mm | - | - | - |
| 1778025598 | 23.89° C | 37% | 1012.2 hPa | 0 mm | - | - | - |
| 1778025296 | 23.89° C | 37% | 1012.4 hPa | 0 mm | - | - | - |
| 1778024992 | 23.89° C | 38% | 1012.5 hPa | 0 mm | - | - | - |
| 1778024690 | 24.44° C | 37% | 1012.1 hPa | 0 mm | - | - | - |
| 1778024386 | 24.44° C | 37% | 1012.1 hPa | 0 mm | - | - | - |
| 1778024084 | 24.44° C | 36% | 1012.1 hPa | 0 mm | - | - | - |
| 1778023782 | 25° C | 35% | 1012.2 hPa | 0 mm | - | - | - |
| 1778023480 | 25° C | 35% | 1012.2 hPa | 0 mm | - | - | - |
| 1778023176 | 25° C | 33% | 1012.1 hPa | 0 mm | - | - | - |
| 1778022873 | 25° C | 33% | 1012.1 hPa | 0 mm | - | - | - |
| 1778022572 | - | - | - | 0 mm | - | - | - |
| 1778022269 | 25° C | 34% | 1012.3 hPa | 0 mm | - | - | - |
| 1778021965 | 25° C | 34% | 1012.3 hPa | 0 mm | - | - | - |
| 1778021663 | 25.56° C | 32% | 1012.3 hPa | 0 mm | - | - | - |
| 1778021358 | 25.56° C | 32% | 1012.3 hPa | 0 mm | - | - | - |
| 1778021055 | 26.11° C | 30% | 1012.1 hPa | 0 mm | - | - | - |
| 1778020752 | 26.67° C | 30% | 1012.3 hPa | 0 mm | - | - | - |
| 1778020449 | 26.11° C | 30% | 1012.3 hPa | 0 mm | - | - | - |
* Rain latest hour (hover to see other rain measurements)
** Current wind speed in m/s (hover to see current wind gust speed)